FW1747 Weather Reports


Display with metric or nautical units.
time (UTC)temp
F
wind
direction
speed
MPH
gust
MPH
rain 1hr
in
rain 24hr
in
rain mn
in
humidity
%
barometer
mb
20260505151543 54 130 0.0 0.0 0.00 0.00 0.00 82 1016.6
20260505124529 52 210 0.0 0.0 0.00 0.00 0.00 83 1015.5
20260505123027 52 209 0.0 0.0 0.00 0.00 0.00 84 1015.4
20260505121533 52 186 0.0 0.0 0.00 0.00 0.00 83 1015.5
20260505120026 52 214 0.0 0.0 0.00 0.00 0.00 83 1015.4
20260505114524 52 195 0.0 0.0 0.00 0.00 0.00 83 1015.4
20260505113022 52 205 0.0 0.0 0.00 0.00 0.00 83 1015.3
20260505111521 52 223 0.0 0.0 0.00 0.00 0.00 83 1015.2
20260505101520 52 200 0.0 0.0 0.00 0.00 0.00 84 1014.9
20260505100018 52 214 0.0 0.0 0.00 0.00 0.00 84 1015.0
20260505094512 52 169 0.0 0.0 0.00 0.00 0.00 84 1014.9
20260505093010 52 169 0.0 0.0 0.00 0.00 0.00 84 1014.7
20260505091509 52 169 0.0 0.0 0.00 0.00 0.00 85 1014.7
20260505090015 51 169 0.0 0.0 0.00 0.00 0.00 85 1014.6
20260505084507 51 169 0.0 0.0 0.00 0.00 0.00 84 1014.7
20260505083006 51 169 0.0 0.0 0.00 0.00 0.00 84 1014.5
20260505081506 51 217 0.0 0.0 0.00 0.00 0.00 84 1014.4
20260505080009 51 217 0.0 0.0 0.00 0.00 0.00 84 1014.4
20260505074502 51 173 0.0 0.0 0.00 0.00 0.00 84 1014.4
20260505073104 51 173 0.0 0.0 0.00 0.00 0.00 82 1014.3
20260505071556 51 173 0.0 0.0 0.00 0.00 0.00 82 1014.2
20260505070054 51 173 0.0 0.0 0.00 0.00 0.00 81 1014.1
20260505064554 52 173 0.0 0.0 0.00 0.00 0.00 80 1014.0
20260505063053 52 173 0.0 0.0 0.00 0.00 0.00 80 1013.8
20260505061553 53 171 0.0 0.0 0.00 0.00 0.00 79 1013.7
20260505060052 53 235 0.0 0.0 0.00 0.00 0.00 78 1013.8
20260505054556 53 235 0.0 0.0 0.00 0.00 0.00 78 1013.8
20260505053051 54 188 0.0 0.0 0.00 0.00 0.00 77 1013.8
20260505051550 54 176 0.0 0.0 0.00 0.00 0.00 76 1013.6
20260505041549 57 219 0.0 0.0 0.00 0.00 0.00 76 1012.9
20260505040052 58 191 0.0 0.0 0.00 0.00 0.00 75 1012.6
20260505034551 59 191 0.0 0.0 0.00 0.00 0.00 74 1012.4
20260505033047 60 191 0.0 0.0 0.00 0.00 0.00 72 1012.0
20260505031556 61 191 0.0 0.0 0.00 0.00 0.00 70 1011.9
20260505030047 62 194 0.0 0.0 0.00 0.00 0.00 70 1011.6
20260505024551 64 225 0.0 1.0 0.00 0.00 0.00 68 1011.3
20260505023047 65 203 0.0 0.0 0.00 0.00 0.00 65 1011.2
20260505021544 67 181 0.0 0.0 0.00 0.00 0.00 64 1011.1
20260505020050 68 197 0.0 0.0 0.00 0.00 0.00 61 1011.2
20260505014601 69 203 0.0 0.0 0.00 0.00 0.00 62 1011.1
20260505013043 69 205 0.0 0.0 0.00 0.00 0.00 62 1011.1
20260505011549 69 235 0.0 1.0 0.00 0.00 0.00 61 1011.2
20260505010042 71 190 0.0 0.0 0.00 0.00 0.00 60 1011.3
20260505004542 73 284 0.0 0.0 0.00 0.00 0.00 59 1011.3
20260505003040 71 205 0.0 0.0 0.00 0.00 0.00 60 1011.3
20260505001544 72 149 0.0 0.0 0.00 0.00 0.00 59 1011.3
20260505000042 73 160 0.0 0.0 0.00 0.00 0.00 56 1011.5
20260504234537 73 209 0.0 0.0 0.00 0.00 0.00 57 1011.5
20260504233034 71 224 0.0 0.0 0.00 0.00 0.00 60 1011.6
20260504231533 70 88 0.0 0.0 0.00 0.00 0.00 60 1011.8
20260504230033 71 76 0.0 0.0 0.00 0.00 0.00 59 1011.9
20260504224537 70 165 0.0 0.0 0.00 0.00 0.00 59 1012.1
20260504223029 70 63 0.0 0.0 0.00 0.00 0.00 58 1012.3
20260504221525 69 192 0.0 0.0 0.00 0.00 0.00 61 1012.4
20260504220023 68 89 0.0 0.0 0.00 0.00 0.00 61 1012.6
20260504214526 68 190 0.0 0.0 0.00 0.00 0.00 60 1012.7
20260504213022 67 257 0.0 0.0 0.00 0.00 0.00 64 1012.8
20260504211518 67 243 0.0 1.0 0.00 0.00 0.00 63 1013.0
20260504210025 66 154 0.0 0.0 0.00 0.00 0.00 63 1013.2
20260504204526 65 108 0.0 0.0 0.00 0.00 0.00 64 1013.3
20260504203009 64 271 0.0 0.0 0.00 0.00 0.00 67 1013.5
20260504201508 65 173 0.0 0.0 0.00 0.00 0.00 65 1013.5
20260504200005 65 195 0.0 1.0 0.00 0.00 0.00 64 1013.7
20260504194505 64 147 0.0 0.0 0.00 0.00 0.00 66 1013.7
20260504193002 62 165 0.0 0.0 0.00 0.00 0.00 70 1013.7
20260504191501 61 158 0.0 0.0 0.00 0.00 0.00 72 1013.9
20260504190059 59 251 0.0 0.0 0.00 0.00 0.00 74 1014.0
20260504184602 59 180 0.0 0.0 0.00 0.00 0.00 74 1014.1
20260504183104 58 76 0.0 1.0 0.00 0.00 0.00 75 1014.1
20260504181556 58 233 0.0 0.0 0.00 0.00 0.00 74 1014.0
20260504180116 58 181 0.0 0.0 0.00 0.00 0.00 74 1014.0
20260504174556 57 146 0.0 0.0 0.00 0.00 0.00 75 1013.9
20260504173107 57 193 0.0 0.0 0.00 0.00 0.00 75 1013.9
20260504171601 57 192 0.0 0.0 0.00 0.00 0.00 75 1013.9